Simultaneous Nadir Overpasses (SNOs) Predictions

Prediction of SNOs between NOAA-20 and NOAA-19 Satellite Orbit:

Table of predicted SNOs for the next 14.0 days since TLE Epoch: 6/12/2020
Index Date (NOAA-20) Time (NOAA-20) Lat,Lon (NOAA-20) SZA (NOAA-20 ) Date (NOAA-19) Time (NOAA-19) Lat,Lon (NOAA-19) SZA (NOAA-19 ) Distance(km) Time Diff (sec)
1 06/26/2020 00:59:40 79.28, 132.66 57.79 06/26/2020 00:58:28 79.29, 132.73 57.82 2.02 72
2 06/26/2020 01:50:25 -79.28, -60.06 122.21 06/26/2020 01:49:33 -79.28, -60.12 122.18 1.25 52
3 06/26/2020 02:41:10 79.28, 107.25 57.80 06/26/2020 02:40:29 79.28, 107.11 57.83 2.90 41
4 06/26/2020 03:31:55 -79.29, -85.47 122.20 06/26/2020 03:31:33 -79.30, -85.46 122.18 1.55 22
5 06/26/2020 04:22:40 79.29, 81.84 57.81 06/26/2020 04:22:29 79.29, 81.77 57.83 1.75 11
6 06/26/2020 05:13:25 -79.29,-110.88 122.19 06/26/2020 05:13:33 -79.32,-110.80 122.18 3.42 8
7 06/26/2020 06:04:10 79.29, 56.43 57.82 06/26/2020 06:04:29 79.31, 56.43 57.83 2.37 19
8 06/26/2020 06:54:55 -79.29,-136.28 122.18 06/26/2020 06:55:34 -79.30,-136.41 122.18 2.83 39
9 06/26/2020 07:45:41 79.33, 30.76 57.88 06/26/2020 07:46:30 79.30, 30.81 57.83 3.53 49
10 06/26/2020 08:36:25 -79.30,-161.69 122.17 06/26/2020 08:37:34 -79.32,-161.75 122.18 2.85 69




NCC Satellite Simultaneous Nadir Overpasses (SNOs) Prediction Service
